FlightSource - Aviation Photo Database

World Wide Airport Lookup


Search by ICAO
Or
Search by City

FlightSource.ca - Aviation Photo Database - Tallahassee Regional Airport Information
Airport Identification
Name: Tallahassee Regional Airport
ICAO: KTLH
IATA: TLH
Airport Location
City: Tallahassee
Region: FL
Country: United States
Continent: North America
Latitude: 30.3965
Longitude: -84.3503
Airport Information
Type: Large Airport
Elevation: 81 Feet ASL
Flight Status: KTLH
More Info: KTLH
Airport Weather    
Metar: KTLH 251153Z 15003KT 1/8SM FG VV003 19/19 A3012 RMK AO2 SLP198 T01940194 10194 20183 53008
TAF:


Advertisement